�������l�o���
Date,Time,MP-1(��Sv/h),MP-2(��Sv/h),MP-3(��Sv/h),MP-4(��Sv/h),MP-5(��Sv/h),MP-6(��Sv/h),MP-7(��Sv/h),MP-8(��Sv/h),����,����(m/s),���J
2019/11/05,00:00,0.720,1.032,0.670,1.267,0.894,0.414,0.717,0.681,��,1.9,��
2019/11/05,00:10,0.721,1.033,0.671,1.267,0.896,0.412,0.717,0.681,��,1.9,��
2019/11/05,00:20,0.720,1.035,0.670,1.265,0.893,0.415,0.719,0.681,���k��,1.8,��
2019/11/05,00:30,0.721,1.035,0.671,1.267,0.896,0.412,0.719,0.681,���k��,2.4,��
2019/11/05,00:40,0.723,1.035,0.670,1.266,0.896,0.414,0.718,0.679,���k��,3.1,��
2019/11/05,00:50,0.722,1.034,0.670,1.266,0.893,0.415,0.717,0.683,���k��,4.3,��
2019/11/05,01:00,0.721,1.033,0.670,1.266,0.895,0.415,0.717,0.680,���k��,4.1,��
2019/11/05,01:10,0.719,1.034,0.671,1.266,0.894,0.414,0.717,0.681,��,3.5,��
2019/11/05,01:20,0.723,1.036,0.668,1.266,0.894,0.413,0.717,0.679,��,3.4,��
2019/11/05,01:30,0.721,1.033,0.672,1.267,0.897,0.413,0.717,0.680,��,2.8,��
2019/11/05,01:40,0.720,1.032,0.669,1.266,0.894,0.415,0.718,0.680,��,4.1,��
2019/11/05,01:50,0.722,1.034,0.671,1.269,0.895,0.413,0.717,0.679,��,4.7,��
2019/11/05,02:00,0.722,1.032,0.669,1.267,0.894,0.413,0.717,0.679,��,4.6,��
2019/11/05,02:10,0.719,1.033,0.670,1.269,0.897,0.413,0.718,0.680,��,4.5,��
2019/11/05,02:20,0.721,1.035,0.672,1.267,0.893,0.412,0.718,0.682,��,4.4,��
2019/11/05,02:30,0.720,1.034,0.671,1.265,0.895,0.413,0.718,0.681,��,3.1,��
2019/11/05,02:40,0.721,1.032,0.672,1.265,0.896,0.413,0.717,0.681,��,2.5,��
2019/11/05,02:50,0.721,1.034,0.671,1.267,0.896,0.415,0.717,0.679,���k��,2.4,��
2019/11/05,03:00,0.722,1.033,0.670,1.268,0.894,0.413,0.717,0.681,���k��,2.5,��
2019/11/05,03:10,0.721,1.033,0.670,1.265,0.895,0.414,0.717,0.680,���k��,2.6,��
2019/11/05,03:20,0.720,1.033,0.670,1.265,0.896,0.414,0.717,0.681,��,3.9,��
2019/11/05,03:30,0.720,1.032,0.669,1.266,0.892,0.415,0.719,0.681,���k��,5.0,��
2019/11/05,03:40,0.722,1.031,0.669,1.267,0.894,0.415,0.717,0.680,��,4.5,��
2019/11/05,03:50,0.720,1.034,0.670,1.266,0.895,0.414,0.718,0.683,��,5.5,��
2019/11/05,04:00,0.722,1.033,0.670,1.267,0.893,0.413,0.720,0.680,��,5.5,��
2019/11/05,04:10,0.720,1.032,0.670,1.265,0.894,0.414,0.717,0.680,���k��,4.2,��
2019/11/05,04:20,0.721,1.032,0.671,1.267,0.894,0.414,0.718,0.680,���k��,5.2,��
2019/11/05,04:30,0.722,1.032,0.670,1.267,0.894,0.413,0.717,0.679,���k��,5.7,��
2019/11/05,04:40,0.722,1.033,0.670,1.265,0.894,0.414,0.718,0.681,���k��,5.5,��
2019/11/05,04:50,0.720,1.033,0.670,1.265,0.894,0.414,0.718,0.680,���k��,5.6,��
2019/11/05,05:00,0.721,1.032,0.668,1.267,0.894,0.414,0.717,0.681,���k��,5.5,��
2019/11/05,05:10,0.722,1.033,0.668,1.267,0.893,0.415,0.716,0.681,���k��,4.9,��
2019/11/05,05:20,0.720,1.032,0.669,1.266,0.894,0.415,0.718,0.683,���k��,4.1,��
2019/11/05,05:30,0.719,1.032,0.672,1.268,0.896,0.415,0.718,0.680,��,3.9,��
2019/11/05,05:40,0.721,1.031,0.670,1.266,0.894,0.414,0.716,0.680,���k��,5.2,��
2019/11/05,05:50,0.721,1.031,0.670,1.267,0.893,0.413,0.718,0.680,��,5.0,��
2019/11/05,06:00,0.720,1.032,0.670,1.269,0.894,0.413,0.717,0.680,��,4.0,��
2019/11/05,06:10,0.719,1.031,0.669,1.264,0.894,0.414,0.717,0.678,���k��,4.5,��
2019/11/05,06:20,0.719,1.033,0.669,1.267,0.893,0.411,0.718,0.678,���k��,3.4,��
2019/11/05,06:30,0.721,1.033,0.670,1.265,0.895,0.413,0.718,0.680,���k��,3.3,��
2019/11/05,06:40,0.722,1.033,0.670,1.267,0.895,0.415,0.719,0.681,�k��,3.2,��
2019/11/05,06:50,0.721,1.032,0.668,1.266,0.894,0.414,0.716,0.680,���k��,4.9,��
2019/11/05,07:00,0.720,1.033,0.669,1.267,0.894,0.414,0.718,0.681,���k��,3.9,��
2019/11/05,07:10,0.720,1.031,0.670,1.267,0.893,0.413,0.717,0.682,���k��,3.9,��
2019/11/05,07:20,0.721,1.034,0.668,1.266,0.892,0.414,0.720,0.681,���k��,4.6,��
2019/11/05,07:30,0.720,1.033,0.669,1.265,0.893,0.415,0.718,0.681,���k��,4.7,��
2019/11/05,07:40,0.722,1.033,0.667,1.267,0.894,0.414,0.719,0.680,���k��,4.5,��
2019/11/05,07:50,0.721,1.033,0.668,1.265,0.892,0.414,0.717,0.680,���k��,3.1,��
2019/11/05,08:00,0.722,1.034,0.670,1.268,0.894,0.415,0.718,0.680,�k��,1.5,��
2019/11/05,08:10,0.723,1.034,0.670,1.267,0.895,0.414,0.720,0.680,���k��,3.8,��
2019/11/05,08:20,0.721,1.031,0.670,1.267,0.895,0.416,0.720,0.680,���k��,3.2,��
2019/11/05,08:30,0.723,1.029,0.669,1.265,0.897,0.414,0.720,0.681,��,2.7,��
2019/11/05,08:40,0.725,1.027,0.671,1.266,0.894,0.415,0.717,0.680,���k��,2.4,��
2019/11/05,08:50,0.722,1.029,0.670,1.268,0.894,0.415,0.718,0.682,�k��,2.7,��
2019/11/05,09:00,0.727,1.023,0.670,1.267,0.895,0.415,0.716,0.682,�k��,2.5,��
2019/11/05,09:10,0.725,1.029,0.672,1.267,0.894,0.416,0.718,0.680,���k��,2.7,��
2019/11/05,09:20,0.725,1.024,0.672,1.267,0.894,0.415,0.718,0.682,�k��,3.8,��
2019/11/05,09:30,0.723,1.021,0.672,1.268,0.898,0.414,0.719,0.682,�k��,1.1,��
2019/11/05,09:40,0.718,1.024,0.670,1.269,0.895,0.415,0.718,0.680,���k��,1.5,��
2019/11/05,09:50,0.717,1.025,0.671,1.268,0.897,0.415,0.718,0.683,���k��,1.2,��
2019/11/05,10:00,0.719,1.029,0.671,1.268,0.897,0.417,0.718,0.682,�k,1.8,��
2019/11/05,10:10,0.722,1.028,0.672,1.268,0.896,0.415,0.719,0.681,�k�k��,1.9,��
2019/11/05,10:20,0.719,1.029,0.669,1.270,0.896,0.413,0.717,0.682,�k��,4.7,��
2019/11/05,10:30,0.720,1.026,0.670,1.270,0.896,0.414,0.718,0.683,�k��,4.2,��
2019/11/05,10:40,0.721,1.031,0.670,1.268,0.894,0.413,0.719,0.682,��쐼,2.2,��
2019/11/05,10:50,0.721,1.032,0.671,1.268,0.896,0.412,0.718,0.682,��쓌,3.2,��
2019/11/05,11:00,0.721,1.030,0.669,1.270,0.896,0.413,0.718,0.682,�쓌,3.1,��
2019/11/05,11:10,0.721,1.028,0.669,1.268,0.892,0.414,0.719,0.682,��쓌,2.7,��
2019/11/05,11:20,0.722,1.030,0.667,1.271,0.895,0.413,0.718,0.680,��,2.0,��
2019/11/05,11:30,0.723,1.029,0.670,1.270,0.896,0.412,0.720,0.682,��쓌,1.8,��
2019/11/05,11:40,0.722,1.032,0.671,1.271,0.897,0.414,0.717,0.683,��쓌,3.3,��
2019/11/05,11:50,0.724,1.033,0.669,1.270,0.897,0.415,0.718,0.682,��,2.6,��
2019/11/05,12:00,0.725,1.032,0.672,1.271,0.898,0.414,0.719,0.682,�쐼,1.9,��
2019/11/05,12:10,0.725,1.036,0.671,1.269,0.894,0.417,0.720,0.681,��쐼,1.2,��
2019/11/05,12:20,0.727,1.038,0.671,1.271,0.896,0.416,0.719,0.681,���k��,2.3,��
2019/11/05,12:30,0.727,1.039,0.671,1.271,0.897,0.417,0.723,0.681,���쓌,3.9,��
2019/11/05,12:40,0.726,1.037,0.674,1.273,0.896,0.415,0.719,0.682,���쓌,2.6,��
2019/11/05,12:50,0.727,1.036,0.673,1.272,0.898,0.417,0.718,0.681,��,2.6,��
2019/11/05,13:00,0.726,1.038,0.673,1.271,0.898,0.417,0.719,0.679,��,3.2,��
2019/11/05,13:10,0.720,1.037,0.671,1.272,0.897,0.415,0.719,0.678,��,3.1,��
2019/11/05,13:20,0.721,1.035,0.671,1.271,0.898,0.416,0.719,0.678,��,3.0,��
2019/11/05,13:30,0.720,1.031,0.671,1.269,0.897,0.417,0.720,0.680,���쓌,2.9,��
2019/11/05,13:40,0.720,1.032,0.672,1.269,0.896,0.416,0.719,0.680,���쓌,3.2,��
2019/11/05,13:50,0.719,1.031,0.672,1.269,0.896,0.417,0.718,0.679,���쓌,3.1,��
2019/11/05,14:00,0.721,1.030,0.672,1.269,0.898,0.416,0.720,0.682,���쓌,2.8,��
2019/11/05,14:10,0.720,1.029,0.671,1.270,0.897,0.416,0.719,0.680,���쓌,3.1,��
2019/11/05,14:20,0.720,1.030,0.671,1.269,0.896,0.416,0.718,0.682,���쓌,2.6,��
2019/11/05,14:30,0.721,1.032,0.673,1.269,0.897,0.416,0.719,0.680,��,2.6,��
2019/11/05,14:40,0.723,1.032,0.673,1.270,0.898,0.417,0.721,0.683,���쓌,2.8,��
2019/11/05,14:50,0.722,1.036,0.673,1.272,0.897,0.416,0.720,0.679,���쓌,3.5,��
2019/11/05,15:00,0.722,1.036,0.674,1.270,0.896,0.416,0.719,0.681,���쓌,3.9,��
2019/11/05,15:10,0.721,1.037,0.674,1.269,0.899,0.417,0.719,0.681,���쓌,3.5,��
2019/11/05,15:20,0.724,1.040,0.673,1.270,0.897,0.417,0.723,0.682,���쓌,3.5,��
2019/11/05,15:30,0.726,1.039,0.674,1.269,0.898,0.416,0.719,0.682,���쓌,3.2,��
2019/11/05,15:40,0.725,1.040,0.674,1.268,0.897,0.415,0.718,0.682,���쓌,4.1,��
2019/11/05,15:50,0.727,1.040,0.673,1.269,0.900,0.417,0.719,0.682,���쓌,4.3,��
2019/11/05,16:00,0.727,1.041,0.673,1.272,0.898,0.416,0.719,0.685,�쓌,3.6,��
2019/11/05,16:10,0.727,1.041,0.674,1.271,0.898,0.417,0.720,0.683,���쓌,3.0,��
2019/11/05,16:20,0.726,1.045,0.674,1.269,0.897,0.416,0.721,0.681,��쓌,1.8,��
2019/11/05,16:30,0.727,1.045,0.673,1.273,0.896,0.417,0.722,0.683,�쓌,1.6,��
2019/11/05,16:40,0.725,1.043,0.673,1.271,0.897,0.417,0.719,0.682,��,1.9,��
2019/11/05,16:50,0.726,1.043,0.674,1.268,0.898,0.416,0.719,0.683,���쐼,2.2,��
2019/11/05,17:00,0.728,1.043,0.674,1.270,0.899,0.416,0.719,0.681,���쐼,3.1,��
2019/11/05,17:10,0.728,1.042,0.672,1.269,0.900,0.417,0.719,0.682,���k��,3.8,��
2019/11/05,17:20,0.727,1.041,0.675,1.271,0.898,0.414,0.721,0.682,���k��,3.8,��
2019/11/05,17:30,0.727,1.042,0.673,1.272,0.898,0.417,0.720,0.681,��,2.7,��
2019/11/05,17:40,0.728,1.042,0.674,1.269,0.898,0.416,0.721,0.681,��,2.8,��
2019/11/05,17:50,0.726,1.043,0.674,1.270,0.899,0.416,0.719,0.681,���k��,2.7,��
2019/11/05,18:00,0.727,1.041,0.674,1.271,0.899,0.416,0.720,0.682,���k��,3.0,��
2019/11/05,18:10,0.726,1.042,0.674,1.271,0.896,0.414,0.719,0.683,���k��,2.9,��
2019/11/05,18:20,0.726,1.040,0.676,1.273,0.899,0.415,0.720,0.681,�k��,2.2,��
2019/11/05,18:30,0.729,1.042,0.674,1.271,0.898,0.416,0.719,0.681,���k��,2.3,��
2019/11/05,18:40,0.726,1.040,0.672,1.270,0.898,0.416,0.721,0.682,���k��,2.4,��
2019/11/05,18:50,0.725,1.042,0.673,1.272,0.900,0.417,0.719,0.681,���k��,3.8,��
2019/11/05,19:00,0.726,1.042,0.674,1.270,0.900,0.414,0.721,0.681,���k��,3.3,��
2019/11/05,19:10,0.726,1.041,0.672,1.272,0.899,0.416,0.720,0.682,�k��,2.8,��
2019/11/05,19:20,0.728,1.042,0.674,1.270,0.900,0.415,0.720,0.682,�k��,1.4,��
2019/11/05,19:30,0.725,1.039,0.674,1.271,0.901,0.416,0.720,0.681,���k��,2.2,��
2019/11/05,19:40,0.726,1.041,0.674,1.272,0.899,0.416,0.721,0.681,��,2.8,��
2019/11/05,19:50,0.724,1.038,0.673,1.269,0.900,0.415,0.722,0.681,��,3.2,��
2019/11/05,20:00,0.726,1.040,0.674,1.271,0.898,0.415,0.720,0.681,��,3.1,��
2019/11/05,20:10,0.724,1.041,0.672,1.270,0.899,0.415,0.721,0.681,���k��,3.2,��
2019/11/05,20:20,0.725,1.040,0.674,1.271,0.899,0.416,0.720,0.682,�k��,2.1,��
2019/11/05,20:30,0.726,1.040,0.672,1.271,0.900,0.415,0.719,0.681,�k��,2.6,��
2019/11/05,20:40,0.726,1.040,0.673,1.271,0.898,0.416,0.719,0.680,�k��,2.7,��
2019/11/05,20:50,0.724,1.040,0.674,1.271,0.898,0.415,0.719,0.681,��,2.8,��
2019/11/05,21:00,0.726,1.039,0.674,1.271,0.899,0.414,0.719,0.682,���쐼,2.1,��
2019/11/05,21:10,0.726,1.040,0.673,1.270,0.898,0.414,0.721,0.680,��쐼,1.5,��
2019/11/05,21:20,0.725,1.038,0.673,1.271,0.899,0.415,0.719,0.681,���쐼,1.4,��
2019/11/05,21:30,0.725,1.038,0.672,1.270,0.899,0.415,0.719,0.682,��쐼,2.1,��
2019/11/05,21:40,0.726,1.037,0.672,1.270,0.898,0.413,0.718,0.681,�쐼,3.0,��
2019/11/05,21:50,0.724,1.039,0.674,1.273,0.897,0.415,0.720,0.680,���쐼,4.5,��
2019/11/05,22:00,0.726,1.037,0.674,1.271,0.899,0.415,0.719,0.681,���쐼,2.5,��
2019/11/05,22:10,0.726,1.039,0.673,1.271,0.900,0.415,0.720,0.682,��,2.8,��
2019/11/05,22:20,0.727,1.039,0.673,1.271,0.895,0.414,0.719,0.682,���쐼,2.7,��
2019/11/05,22:30,0.726,1.039,0.674,1.271,0.899,0.415,0.718,0.681,���쐼,4.2,��
2019/11/05,22:40,0.728,1.038,0.675,1.272,0.897,0.415,0.719,0.680,��,2.9,��
2019/11/05,22:50,0.725,1.038,0.674,1.269,0.898,0.416,0.719,0.682,���k��,2.4,��
2019/11/05,23:00,0.724,1.038,0.673,1.272,0.897,0.415,0.718,0.682,��쐼,2.8,��
2019/11/05,23:10,0.726,1.039,0.673,1.271,0.898,0.415,0.719,0.681,��쐼,4.5,��
2019/11/05,23:20,0.726,1.039,0.672,1.271,0.899,0.415,0.720,0.681,��쐼,4.3,��
2019/11/05,23:30,0.726,1.040,0.672,1.271,0.899,0.416,0.721,0.682,��,3.8,��
2019/11/05,23:40,0.726,1.038,0.673,1.270,0.896,0.416,0.721,0.683,��,4.1,��
2019/11/05,23:50,0.726,1.039,0.673,1.270,0.898,0.417,0.719,0.681,��,4.4,��
